Location: ??????
(41.3164°N, 22.6615°E)
Time: 05:39:08
(UTC+00:00)

CUBEBUG 2 - Pass Details

Date: 07 July 2022
Orbit: 584 x 692 km, 97.7° (Epoch: 17 August)

Event Time Altitude Azimuth Distance (km) Brightness Sun altitude
Rises 01:19:33 0° 14° (NNE) 2,859 ? -15.5°
Reaches altitude 10° 01:21:43 10° 17° (NNE) 1,965 ? -15.2°
Maximum altitude 01:25:58 70° 102° (ESE) 661 ? -14.7°
Enters shadow 01:29:22 16° 184° (S) 1,625 ? -14.3°
